JST912 YSSY-YBTL

Flight info

Callsign JST912
Flight time N/A
Altitude 34000
Route GROOK1/16R RIC H530 LASUD Q293 AKUMI Q147 VOMPA Q165 TL
Aircraft A320/M-SDE3FGHIRWY/LB1

Departure

Time 2026-05-05 04:40
Airport Sydney Kingsford Smith International Airport (YSSY)

Arrival

Time N/A
Airport Townsville Airport / RAAF Base Townsville (YBTL)
Time Latitude Longitude Altitude Speed Heading
2026-05-05 04:40 -34.20702 151.21687 9865 ft 283 kts 212°
2026-05-05 04:40 -34.22288 151.20303 10369 ft 287 kts 230°
2026-05-05 04:40 -34.23629 151.18438 10698 ft 299 kts 235°
2026-05-05 04:41 -34.24678 151.16270 11270 ft 300 kts 251°
2026-05-05 04:41 -34.25179 151.13836 11906 ft 300 kts 266°
2026-05-05 04:41 -34.25110 151.11318 12554 ft 302 kts 281°
2026-05-05 04:41 -34.24558 151.08866 13197 ft 305 kts 291°
2026-05-05 04:42 -34.23476 151.06642 13833 ft 310 kts 308°
2026-05-05 04:42 -34.21854 151.04899 14395 ft 318 kts 324°
2026-05-05 04:42 -34.19808 151.03833 14951 ft 327 kts 342°
2026-05-05 04:42 -34.17551 151.03288 15500 ft 332 kts 345°
2026-05-05 04:43 -34.15273 151.02768 16042 ft 335 kts 345°
2026-05-05 04:43 -34.12987 151.02246 16583 ft 337 kts 345°
2026-05-05 04:43 -34.10668 151.01684 17121 ft 339 kts 343°
2026-05-05 04:43 -34.08376 151.01003 17653 ft 341 kts 341°
2026-05-05 04:44 -34.06103 151.00244 18164 ft 344 kts 341°
2026-05-05 04:44 -34.03790 150.99435 18632 ft 348 kts 340°
2026-05-05 04:44 -34.01457 150.98616 19127 ft 350 kts 340°
2026-05-05 04:44 -33.99107 150.97794 19630 ft 351 kts 338°
2026-05-05 04:45 -33.96824 150.96708 19909 ft 359 kts 333°
2026-05-05 04:45 -33.94481 150.95500 20036 ft 372 kts 333°
2026-05-05 04:45 -33.92053 150.94246 20177 ft 384 kts 333°
2026-05-05 04:45 -33.89573 150.92967 20526 ft 390 kts 333°
2026-05-05 04:46 -33.87100 150.91696 21249 ft 383 kts 333°
2026-05-05 04:46 -33.84660 150.90445 21910 ft 380 kts 333°
2026-05-05 04:46 -33.82227 150.89192 22417 ft 380 kts 333°
2026-05-05 04:46 -33.79786 150.87936 22871 ft 382 kts 332°
2026-05-05 04:47 -33.77337 150.86677 23306 ft 384 kts 332°
2026-05-05 04:47 -33.74871 150.85412 23737 ft 386 kts 332°
2026-05-05 04:47 -33.72431 150.84161 24115 ft 387 kts 332°
2026-05-05 04:47 -33.69956 150.82894 24533 ft 386 kts 332°
2026-05-05 04:48 -33.67485 150.81635 24974 ft 386 kts 332°
2026-05-05 04:48 -33.65016 150.80373 25397 ft 385 kts 332°
2026-05-05 04:48 -33.62553 150.79116 25829 ft 384 kts 332°
2026-05-05 04:48 -33.60184 150.77677 26250 ft 378 kts 323°
2026-05-05 04:49 -33.58105 150.75791 26664 ft 373 kts 314°
2026-05-05 04:49 -33.56255 150.73627 27084 ft 372 kts 313°
2026-05-05 04:49 -33.54399 150.71458 27502 ft 371 kts 313°
2026-05-05 04:49 -33.52543 150.69308 27912 ft 371 kts 313°
2026-05-05 04:50 -33.51313 150.67893 28218 ft 370 kts 314°
2026-05-05 04:50 -33.49457 150.65763 28690 ft 368 kts 314°
2026-05-05 04:50 -33.47011 150.62954 29216 ft 367 kts 314°
2026-05-05 04:50 -33.45771 150.61526 29511 ft 367 kts 314°
2026-05-05 04:51 -33.43942 150.59414 30087 ft 363 kts 314°
2026-05-05 04:51 -33.42145 150.57337 30622 ft 356 kts 314°
2026-05-05 04:51 -33.40372 150.55286 31060 ft 353 kts 314°
2026-05-05 04:51 -33.38036 150.52592 31621 ft 351 kts 314°
2026-05-05 04:52 -33.36851 150.51227 31909 ft 349 kts 314°
2026-05-05 04:52 -33.35104 150.49213 32330 ft 347 kts 314°
2026-05-05 04:52 -33.33391 150.47240 32755 ft 346 kts 314°
2026-05-05 04:52 -33.31659 150.45250 33172 ft 344 kts 315°
2026-05-05 04:53 -33.29936 150.43271 33580 ft 343 kts 315°
2026-05-05 04:53 -33.28221 150.41299 33986 ft 341 kts 315°
2026-05-05 04:53 -33.26507 150.39327 34109 ft 342 kts 315°
2026-05-05 04:54 -33.23063 150.35366 34126 ft 344 kts 315°
2026-05-05 04:54 -33.19613 150.31410 34107 ft 343 kts 315°
2026-05-05 04:55 -33.16183 150.27479 34129 ft 344 kts 315°
2026-05-05 04:55 -33.12740 150.23537 34128 ft 343 kts 315°
2026-05-05 04:56 -33.09299 150.19601 34126 ft 343 kts 315°
2026-05-05 04:56 -33.05853 150.15669 34132 ft 344 kts 316°
2026-05-05 04:57 -33.02396 150.11729 34127 ft 344 kts 316°
2026-05-05 04:57 -32.98928 150.07782 34125 ft 345 kts 316°
2026-05-05 04:58 -32.95452 150.03825 34128 ft 345 kts 316°
2026-05-05 04:58 -32.91978 149.99879 34131 ft 345 kts 316°
2026-05-05 04:59 -32.88517 149.95959 34134 ft 346 kts 316°
2026-05-05 04:59 -32.85036 149.92011 34117 ft 346 kts 316°
2026-05-05 05:00 -32.81546 149.88054 34119 ft 347 kts 317°
2026-05-05 05:00 -32.78038 149.84091 34116 ft 349 kts 317°
2026-05-05 05:01 -32.74508 149.80116 34118 ft 350 kts 317°
2026-05-05 05:01 -32.70975 149.76121 34118 ft 351 kts 316°
2026-05-05 05:02 -32.67432 149.72121 34124 ft 352 kts 316°
2026-05-05 05:02 -32.63880 149.68118 34126 ft 352 kts 317°
2026-05-05 05:03 -32.60320 149.64121 34127 ft 352 kts 317°
2026-05-05 05:03 -32.56781 149.60155 34130 ft 352 kts 316°
2026-05-05 05:04 -32.53580 149.55739 34112 ft 354 kts 310°
2026-05-05 05:04 -32.50468 149.51201 34108 ft 356 kts 310°
2026-05-05 05:05 -32.47327 149.46653 34108 ft 357 kts 310°
2026-05-05 05:05 -32.44171 149.42098 34115 ft 358 kts 310°
2026-05-05 05:06 -32.41010 149.37544 34123 ft 359 kts 310°
2026-05-05 05:06 -32.37844 149.32971 34129 ft 358 kts 310°
2026-05-05 05:07 -32.34681 149.28416 34132 ft 358 kts 310°
2026-05-05 05:07 -32.31515 149.23857 34135 ft 358 kts 310°
2026-05-05 05:08 -32.28346 149.19300 34143 ft 359 kts 310°
2026-05-05 05:08 -32.25195 149.14778 34144 ft 358 kts 310°
2026-05-05 05:09 -32.22023 149.10233 34142 ft 359 kts 310°
2026-05-05 05:09 -32.18850 149.05682 34143 ft 359 kts 310°
2026-05-05 05:10 -32.15672 149.01126 34134 ft 360 kts 309°
2026-05-05 05:10 -32.12487 148.96576 34124 ft 360 kts 308°
2026-05-05 05:11 -32.09293 148.92020 34137 ft 360 kts 309°
2026-05-05 05:11 -32.05532 148.88119 34139 ft 366 kts 327°
2026-05-05 05:12 -32.00628 148.86241 34139 ft 377 kts 341°
2026-05-05 05:12 -31.95513 148.85012 34138 ft 378 kts 341°
2026-05-05 05:13 -31.90361 148.83766 34139 ft 378 kts 341°
2026-05-05 05:13 -31.85205 148.82512 34140 ft 378 kts 341°
2026-05-05 05:14 -31.80057 148.81266 34144 ft 378 kts 341°
2026-05-05 05:14 -31.74898 148.80016 34145 ft 378 kts 341°
2026-05-05 05:15 -31.69736 148.78772 34144 ft 378 kts 341°
2026-05-05 05:15 -31.64582 148.77521 34146 ft 378 kts 341°
2026-05-05 05:16 -31.59427 148.76269 34123 ft 378 kts 341°
2026-05-05 05:16 -31.54267 148.75026 34141 ft 378 kts 341°
2026-05-05 05:17 -31.49104 148.73783 34146 ft 378 kts 341°
2026-05-05 05:17 -31.43982 148.72545 34149 ft 379 kts 341°
2026-05-05 05:18 -31.38815 148.71309 34152 ft 379 kts 341°
2026-05-05 05:18 -31.33653 148.70065 34125 ft 379 kts 341°
2026-05-05 05:19 -31.28496 148.68825 34141 ft 378 kts 341°
2026-05-05 05:19 -31.23331 148.67593 34141 ft 378 kts 341°
2026-05-05 05:20 -31.18176 148.66355 34145 ft 378 kts 341°
2026-05-05 05:20 -31.13013 148.65121 34147 ft 378 kts 341°
2026-05-05 05:21 -31.07863 148.63885 34136 ft 378 kts 341°
2026-05-05 05:21 -31.02712 148.62653 34145 ft 377 kts 341°
2026-05-05 05:22 -30.97566 148.61434 34148 ft 377 kts 341°
2026-05-05 05:22 -30.92422 148.60214 34153 ft 377 kts 341°
2026-05-05 05:23 -30.87284 148.58990 34151 ft 377 kts 341°
2026-05-05 05:23 -30.82181 148.57775 34138 ft 376 kts 341°
2026-05-05 05:24 -30.77062 148.56567 34148 ft 375 kts 341°
2026-05-05 05:24 -30.71951 148.55357 34153 ft 374 kts 341°
2026-05-05 05:25 -30.66857 148.54155 34150 ft 374 kts 341°
2026-05-05 05:25 -30.61758 148.52948 34151 ft 373 kts 341°
2026-05-05 05:26 -30.56675 148.51742 34149 ft 373 kts 341°
2026-05-05 05:26 -30.51598 148.50538 34153 ft 372 kts 341°
2026-05-05 05:27 -30.46533 148.49344 34156 ft 371 kts 341°
2026-05-05 05:27 -30.38852 148.47536 34141 ft 387 kts 341°
2026-05-05 05:28 -30.33475 148.46258 34117 ft 399 kts 341°
2026-05-05 05:28 -30.28014 148.44977 34137 ft 400 kts 341°
2026-05-05 05:29 -30.22549 148.43708 34137 ft 400 kts 341°
2026-05-05 05:29 -30.17089 148.42438 34139 ft 400 kts 341°
2026-05-05 05:30 -30.11638 148.41167 34138 ft 400 kts 341°
2026-05-05 05:30 -30.06177 148.39882 34113 ft 400 kts 341°
2026-05-05 05:31 -30.00742 148.38610 34135 ft 399 kts 341°
2026-05-05 05:31 -29.95289 148.37343 34142 ft 399 kts 341°
2026-05-05 05:32 -29.89848 148.36077 34144 ft 398 kts 341°
2026-05-05 05:32 -29.84417 148.34814 34141 ft 398 kts 341°
2026-05-05 05:33 -29.79001 148.33553 34129 ft 398 kts 341°
2026-05-05 05:33 -29.73611 148.32301 34141 ft 397 kts 341°
2026-05-05 05:34 -29.68185 148.31035 34144 ft 397 kts 341°
2026-05-05 05:34 -29.62774 148.29781 34146 ft 397 kts 341°
2026-05-05 05:35 -29.57361 148.28540 34149 ft 396 kts 341°
2026-05-05 05:35 -29.51967 148.27299 34129 ft 395 kts 341°
2026-05-05 05:36 -29.46572 148.26047 34140 ft 395 kts 341°
2026-05-05 05:36 -29.41184 148.24802 34148 ft 394 kts 341°
2026-05-05 05:37 -29.35839 148.23569 34148 ft 394 kts 341°
2026-05-05 05:37 -29.30458 148.22327 34147 ft 394 kts 341°
2026-05-05 05:38 -29.25082 148.21094 34143 ft 393 kts 341°
2026-05-05 05:38 -29.20618 148.20072 34155 ft 393 kts 341°
2026-05-05 05:39 -29.14373 148.18639 34142 ft 394 kts 341°
2026-05-05 05:39 -29.08998 148.17411 34138 ft 394 kts 341°
2026-05-05 05:40 -29.04534 148.16392 34135 ft 394 kts 341°
2026-05-05 05:40 -28.99156 148.15156 34122 ft 393 kts 341°
2026-05-05 05:41 -28.93791 148.13927 34126 ft 393 kts 341°
2026-05-05 05:41 -28.88443 148.12713 34129 ft 393 kts 341°
2026-05-05 05:42 -28.83073 148.11492 34134 ft 393 kts 341°
2026-05-05 05:42 -28.77702 148.10256 34135 ft 393 kts 341°
2026-05-05 05:43 -28.72335 148.09034 34118 ft 393 kts 341°
2026-05-05 05:43 -28.66971 148.07821 34130 ft 393 kts 341°
2026-05-05 05:44 -28.61612 148.06600 34135 ft 393 kts 341°
2026-05-05 05:44 -28.56242 148.05376 34139 ft 393 kts 341°
2026-05-05 05:45 -28.50880 148.04165 34143 ft 393 kts 341°
2026-05-05 05:45 -28.45552 148.02957 34120 ft 393 kts 341°
2026-05-05 05:46 -28.40188 148.01742 34132 ft 393 kts 341°
2026-05-05 05:46 -28.34820 148.00534 34142 ft 393 kts 341°
2026-05-05 05:47 -28.29457 147.99328 34144 ft 392 kts 341°
2026-05-05 05:47 -28.24097 147.98121 34131 ft 392 kts 341°
2026-05-05 05:48 -28.18779 147.96926 34119 ft 392 kts 341°
2026-05-05 05:48 -28.13413 147.95721 34125 ft 392 kts 341°
2026-05-05 05:49 -28.08065 147.94515 34132 ft 392 kts 341°
2026-05-05 05:49 -28.02708 147.93303 34138 ft 392 kts 341°
2026-05-05 05:50 -27.97362 147.92103 34146 ft 395 kts 341°
2026-05-05 05:50 -27.91964 147.90903 34142 ft 395 kts 341°
2026-05-05 05:51 -27.86571 147.89701 34138 ft 395 kts 341°
2026-05-05 05:51 -27.81183 147.88495 34139 ft 395 kts 341°
2026-05-05 05:52 -27.75786 147.87284 34136 ft 395 kts 341°
2026-05-05 05:52 -27.70375 147.86080 34136 ft 395 kts 341°
2026-05-05 05:53 -27.64999 147.84887 34120 ft 396 kts 341°
2026-05-05 05:53 -27.59577 147.83681 34121 ft 397 kts 341°
2026-05-05 05:54 -27.54139 147.82469 34122 ft 398 kts 341°
2026-05-05 05:54 -27.48738 147.81264 34128 ft 398 kts 341°
2026-05-05 05:55 -27.43292 147.80050 34137 ft 398 kts 341°
2026-05-05 05:55 -27.37861 147.78848 34134 ft 398 kts 341°
2026-05-05 05:56 -27.32424 147.77652 34142 ft 397 kts 340°
2026-05-05 05:56 -27.27024 147.76455 34147 ft 397 kts 340°
2026-05-05 05:57 -27.21606 147.75257 34147 ft 397 kts 341°
2026-05-05 05:57 -27.16175 147.74067 34144 ft 396 kts 341°
2026-05-05 05:58 -27.10760 147.72873 34121 ft 396 kts 341°
2026-05-05 05:58 -27.05394 147.71680 34129 ft 396 kts 341°
2026-05-05 05:59 -26.99978 147.70481 34137 ft 396 kts 341°
2026-05-05 05:59 -26.94556 147.69292 34140 ft 397 kts 341°
2026-05-05 06:00 -26.89149 147.68095 34141 ft 396 kts 341°
2026-05-05 06:00 -26.83735 147.66911 34136 ft 395 kts 341°
2026-05-05 06:01 -26.78334 147.65729 34142 ft 394 kts 341°
2026-05-05 06:01 -26.72948 147.64545 34155 ft 394 kts 341°
2026-05-05 06:02 -26.67603 147.63379 34147 ft 394 kts 341°
2026-05-05 06:02 -26.62230 147.62201 34149 ft 394 kts 341°
2026-05-05 06:03 -26.56837 147.61021 34145 ft 394 kts 341°
2026-05-05 06:03 -26.51449 147.59854 34140 ft 394 kts 341°
2026-05-05 06:04 -26.46073 147.58686 34141 ft 394 kts 341°
2026-05-05 06:04 -26.40671 147.57495 34137 ft 394 kts 341°
2026-05-05 06:05 -26.35327 147.56324 34133 ft 394 kts 341°
2026-05-05 06:05 -26.29937 147.55151 34095 ft 394 kts 341°
2026-05-05 06:06 -26.24535 147.53987 34093 ft 395 kts 341°
2026-05-05 06:06 -26.19127 147.52815 34099 ft 396 kts 341°
2026-05-05 06:07 -26.13747 147.51642 34112 ft 396 kts 341°
2026-05-05 06:07 -26.08333 147.50460 34114 ft 396 kts 341°
2026-05-05 06:08 -26.02918 147.49290 34092 ft 396 kts 342°
2026-05-05 06:08 -25.97524 147.48130 34096 ft 397 kts 342°
2026-05-05 06:09 -25.92092 147.46961 34109 ft 398 kts 342°
2026-05-05 06:09 -25.86657 147.45787 34108 ft 397 kts 341°
2026-05-05 06:10 -25.81210 147.44611 34109 ft 397 kts 342°
2026-05-05 06:10 -25.75812 147.43450 34073 ft 397 kts 342°
2026-05-05 06:11 -25.70351 147.42277 34083 ft 398 kts 342°
2026-05-05 06:11 -25.64942 147.41115 34091 ft 398 kts 341°
2026-05-05 06:12 -25.59509 147.39945 34096 ft 398 kts 341°
2026-05-05 06:12 -25.54066 147.38779 34098 ft 398 kts 341°
2026-05-05 06:13 -25.48637 147.37607 34080 ft 398 kts 342°
2026-05-05 06:13 -25.43191 147.36439 34081 ft 398 kts 342°
2026-05-05 06:14 -25.37779 147.35280 34086 ft 398 kts 342°
2026-05-05 06:14 -25.32328 147.34115 34080 ft 399 kts 342°
2026-05-05 06:15 -25.26875 147.32954 34087 ft 399 kts 342°
2026-05-05 06:15 -25.21332 147.32170 34062 ft 407 kts 349°
2026-05-05 06:16 -25.15692 147.31953 34066 ft 408 kts 349°
2026-05-05 06:16 -25.10012 147.31726 34069 ft 408 kts 349°
2026-05-05 06:17 -25.04343 147.31492 34071 ft 408 kts 349°
2026-05-05 06:17 -24.98665 147.31265 34074 ft 408 kts 349°
2026-05-05 06:18 -24.92985 147.31042 34045 ft 408 kts 349°
2026-05-05 06:18 -24.87347 147.30813 34057 ft 408 kts 349°
2026-05-05 06:19 -24.81628 147.30578 34062 ft 408 kts 349°
2026-05-05 06:19 -24.75985 147.30344 34053 ft 408 kts 349°
2026-05-05 06:20 -24.70315 147.30107 34021 ft 408 kts 349°
2026-05-05 06:20 -24.64625 147.29880 34028 ft 409 kts 349°
2026-05-05 06:21 -24.58944 147.29662 34029 ft 409 kts 349°
2026-05-05 06:21 -24.53255 147.29427 34036 ft 409 kts 349°
2026-05-05 06:22 -24.47573 147.29193 34037 ft 409 kts 349°
2026-05-05 06:22 -24.41885 147.28969 34020 ft 409 kts 349°
2026-05-05 06:23 -24.36231 147.28746 34023 ft 409 kts 349°
2026-05-05 06:23 -24.30541 147.28517 34030 ft 409 kts 349°
2026-05-05 06:24 -24.24850 147.28289 34033 ft 409 kts 349°
2026-05-05 06:24 -24.19156 147.28053 34036 ft 409 kts 349°
2026-05-05 06:25 -24.13468 147.27830 34000 ft 409 kts 349°
2026-05-05 06:25 -24.07774 147.27609 34008 ft 409 kts 349°
2026-05-05 06:26 -24.02074 147.27381 34022 ft 409 kts 349°
2026-05-05 06:26 -23.96417 147.27154 34033 ft 409 kts 349°
2026-05-05 06:27 -23.87876 147.26816 34033 ft 409 kts 349°
2026-05-05 06:28 -23.83134 147.26630 34036 ft 410 kts 349°
2026-05-05 06:28 -23.77434 147.26393 34021 ft 410 kts 349°
2026-05-05 06:29 -23.71728 147.26164 34036 ft 410 kts 349°
2026-05-05 06:29 -23.66032 147.25936 34034 ft 410 kts 349°
2026-05-05 06:30 -23.60329 147.25711 34007 ft 410 kts 350°
2026-05-05 06:30 -23.54633 147.25489 34027 ft 408 kts 350°
2026-05-05 06:31 -23.48980 147.25273 34033 ft 409 kts 350°
2026-05-05 06:31 -23.43294 147.25041 34032 ft 409 kts 350°
2026-05-05 06:32 -23.37605 147.24808 34032 ft 409 kts 350°
2026-05-05 06:32 -23.31913 147.24583 34018 ft 409 kts 350°
2026-05-05 06:33 -23.26216 147.24359 34022 ft 409 kts 350°
2026-05-05 06:33 -23.20520 147.24132 34026 ft 409 kts 350°
2026-05-05 06:34 -23.14821 147.23903 34031 ft 409 kts 350°
2026-05-05 06:34 -23.09122 147.23682 34032 ft 410 kts 350°
2026-05-05 06:35 -23.03418 147.23461 33996 ft 411 kts 351°